Location: Wangen+im+Allg�u
(47.7098°N, 9.8383°E)
Time: 19:35:23
(UTC+01:00)

ISS - Pass Details

Date: 10 February 2018
Orbit: 402 x 407 km, 51.6° (Epoch: 24 February)

Event Time Altitude Azimuth Distance (km) Brightness Sun altitude
Rises 18:39:21 0° 293° (WNW) 2,321 1.1 -11.2°
Reaches altitude 10° 18:41:27 10° 289° (WNW) 1,460 0.1 -11.5°
Maximum altitude 18:44:40 57° 210° (SSW) 481 -3.3 -12.1°
Enters shadow 18:47:37 12° 132° (SE) 1,351 -1.6 -12.6°
